Startseite
Über Mich
AHP4
Galerie
Sehschlangen
Tourenbuch
Bookmarks
Elektronik
Bewertung
Geschichten
[Tagesmessung] [Jahreswerte] [Information]

Messwerte vom 14.02.2022

Die letzten Messwerte von 23:58:46 Uhr:
KategorieMesswert
Temperatur [°C]7
Luftdruck [mBar]989
Sonneneinstrahlung0
Wind [km/h]5 aus Südost
Niederschlag [l/m²]0
rel.Luftfeucht.81.4%
CO2 [ppm]755

Diagramme
Messwerte vom 14.02.2022
Tagesaggregation
KategorieMinimumMaximumSchnittSumme
Temperatur [°C]3168.5000
Luftdruck [mBar]986991987.9313
Sonneneinstrahlung24478.2083
Wind [km/h]29
rF [%]52.484.272.69
Niederschlag [l/m²]0
CO2 [ppm]407758631.0
Einordnung alsVegetationstag

Messungen an benachbarten Tagen: Zur Jahresaggregation 2022
Tabelle aller Messwerte
UhrzeitTemperatur [°C]Luftdruck [mBar]SonneWind [km/h]RichtungRegen [l/m²]rF [%]CO2 [ppm]
00:01:48 4 991 0 5 SO 0 80 648
00:04:44 4 991 0 5 S 0 80 647
00:07:46 4 991 0 4 SO 0 80.1 650
00:10:45 4 991 0 5 SO 0 80.6 650
00:13:48 4 991 0 8 SO 0 80.5 656
00:16:44 4 991 0 4 O 0 80.3 653
00:19:48 4 991 0 12 S 0 80.3 648
00:22:45 5 991 0 1 SO 0 80.3 652
00:25:47 4 991 0 9 SO 0 80.1 651
00:28:44 4 991 0 6 S 0 80.1 654
00:31:47 4 991 0 3 SO 0 80.2 653
00:34:46 5 991 0 6 S 0 80.2 661
00:37:47 4 991 0 3 S 0 80 659
00:40:46 4 991 0 6 S 0 79.9 657
00:43:46 4 991 0 8 SO 0 80.2 653
00:46:47 4 991 0 1 NW 0 80.5 656
00:49:48 4 991 0 5 SW 0 80.6 649
00:52:45 4 991 0 3 O 0 80.7 641
00:55:45 4 991 0 3 SO 0 81 638
00:58:44 4 991 0 1 S 0 81.2 641
01:01:46 4 991 0 1 SO 0 81.2 650
01:04:47 4 991 0 2 SW 0 81.2 647
01:07:45 4 991 0 4 S 0 81.2 647
01:10:46 4 991 0 1 SW 0 81.1 648
01:13:46 4 991 0 1 SO 0 81.4 653
01:16:48 4 991 0 2 SW 0 81.6 653
01:19:45 4 991 0 1 SO 0 81.9 651
01:22:45 4 991 0 1 N 0 82.3 647
01:25:46 4 991 0 1 SO 0 82.4 641
01:28:46 4 991 0 1 S 0 82.7 640
01:31:48 3 991 0 2 SW 0 82.7 647
01:34:45 3 991 0 0 S 0 83.6 649
01:37:50 3 991 0 0 NO 0 84 648
01:40:48 4 991 0 4 S 0 84 651
01:43:44 4 991 0 6 N 0 84.1 650
01:46:45 4 991 0 4 S 0 84.2 652
01:49:42 4 991 0 5 S 0 84.1 653
01:52:48 4 990 0 3 SO 0 84.1 651
01:55:47 4 990 0 5 SO 0 83.9 641
01:58:46 4 990 0 6 SO 0 83.6 643
02:01:46 4 990 0 5 S 0 83.1 647
02:04:48 4 990 0 11 SO 0 82.5 651
02:07:46 4 990 0 5 SO 0 82.1 655
02:10:46 4 990 0 12 S 0 81.7 655
02:13:50 5 990 0 7 SO 0 80.9 656
02:16:46 5 990 0 4 W 0 80.4 665
02:19:46 5 990 0 1 SW 0 80.1 661
02:22:48 5 990 0 10 SO 0 79.8 669
02:25:48 5 990 0 10 SW 0 79.6 667
02:28:48 5 991 0 10 SO 0 79.1 665
02:31:49 5 990 0 6 SW 0 78.8 653
02:34:46 5 990 0 3 SO 0 78.4 656
02:37:45 5 989 0 6 W 0 78.2 659
02:40:47 5 990 0 3 S 0 77.7 657
02:43:45 5 990 0 3 SW 0 77.6 644
02:46:45 5 990 0 4 S 0 77.5 647
02:49:46 5 989 0 2 S 0 77.4 659
02:52:46 5 989 0 6 SO 0 77.1 665
02:55:46 5 989 0 5 S 0 77.1 662
02:58:49 5 989 0 4 W 0 77 653
03:01:46 5 989 0 5 SW 0 77.1 655
03:04:46 5 989 0 4 S 0 77.2 659
03:07:47 5 989 0 10 SW 0 77.2 665
03:10:46 5 989 0 3 S 0 77.1 656
03:13:46 5 989 0 5 SO 0 77 656
03:16:47 5 989 0 9 SO 0 76.8 652
03:19:48 5 989 0 7 SO 0 76.4 662
03:22:47 5 988 0 6 S 0 75.9 659
03:25:45 5 988 0 7 S 0 75.5 664
03:28:47 5 989 0 15 SO 0 75.3 671
03:31:49 5 988 0 8 SO 0 75.2 669
03:34:46 5 988 0 6 S 0 75.5 665
03:37:48 5 988 0 6 SO 0 75.8 660
03:40:47 5 988 0 5 SW 0 75.9 657
03:43:44 5 988 0 7 S 0 75.9 658
03:46:46 5 989 0 6 SO 0 76 664
03:49:46 5 988 0 12 S 0 76.1 668
03:52:45 5 988 0 9 SO 0 76.1 659
03:55:45 5 989 0 4 SW 0 76.1 649
03:58:48 5 989 0 6 SO 0 75.8 653
04:01:47 5 988 0 9 SO 0 75.3 652
04:04:46 5 988 0 7 S 0 74.8 659
04:07:47 5 988 0 18 SO 0 74.8 661
04:10:45 5 988 0 11 S 0 75.2 653
04:13:47 5 988 0 10 S 0 75.4 665
04:16:46 5 988 0 9 SW 0 75.4 659
04:19:46 5 988 0 6 SW 0 75.4 664
04:22:49 5 988 0 10 S 0 75.4 655
04:25:47 5 988 0 7 S 0 75.2 659
04:28:44 5 988 0 5 S 0 75.2 653
04:31:44 5 988 0 6 S 0 75.4 659
04:34:45 5 987 0 6 S 0 75.5 665
04:37:46 5 988 0 4 SO 0 75.6 677
04:40:47 5 988 0 10 S 0 75.5 680
04:43:47 5 987 0 8 W 0 75.5 676
04:46:46 5 988 0 11 SO 0 75.6 659
04:49:46 5 987 0 6 SO 0 75.6 662
04:52:46 5 987 0 5 SO 0 75.6 664
04:55:45 5 988 0 14 S 0 75.6 670
04:58:45 5 988 0 13 S 0 75.6 676
05:01:44 5 987 0 7 S 0 75.6 669
05:04:46 5 988 0 4 S 0 75.5 674
05:07:46 5 987 0 11 SO 0 75.2 671
05:10:47 5 987 0 12 NW 0 75.2 676
05:13:45 5 988 0 7 S 0 75.3 675
05:16:46 5 987 0 10 SW 0 75.2 671
05:19:47 5 987 0 14 SO 0 74.9 665
05:22:45 5 987 0 7 SO 0 74.9 659
05:25:50 5 987 0 5 SW 0 75 659
05:28:45 5 987 0 4 S 0 74.9 665
05:31:45 5 987 0 9 S 0 74.9 664
05:34:47 5 987 0 10 SW 0 75 668
05:37:49 5 987 0 6 SO 0 75.2 665
05:40:49 5 987 0 3 SO 0 75.3 671
05:43:45 5 987 0 11 S 0 75.3 671
05:46:45 5 987 0 7 SO 0 75.2 668
05:49:49 5 987 0 15 SO 0 75 660
05:52:47 5 987 0 10 SO 0 75.1 652
05:55:46 5 987 0 14 S 0 74.8 656
05:58:46 5 987 0 14 S 0 74.6 656
06:01:48 5 987 0 7 S 0 74.4 665
06:04:45 5 987 0 11 S 0 74.5 669
06:07:48 5 987 0 5 SW 0 74.5 671
06:10:45 5 987 0 14 SO 0 74.4 661
06:13:47 5 987 0 8 SW 0 74.3 656
06:16:47 5 988 0 8 S 0 74.2 654
06:19:49 5 987 0 10 SO 0 74.1 665
06:22:47 5 987 0 5 SW 0 74.1 669
06:25:48 5 987 0 20 SO 0 74.2 668
06:28:45 5 987 0 6 S 0 74.2 665
06:31:45 5 987 0 8 O 0 74.2 662
06:34:44 5 987 0 9 0 74.4 664
06:37:46 5 987 0 10 S 0 74.4 658
06:40:45 5 987 0 3 O 0 74.6 658
06:43:46 5 987 0 4 S 0 74.7 666
06:46:46 5 987 0 8 SW 0 74.8 661
06:49:46 5 987 0 8 SW 0 74.8 664
06:52:47 5 987 0 20 SO 0 74.9 671
06:55:45 5 987 0 9 O 0 74.9 670
06:58:47 5 987 0 12 S 0 75.2 659
07:01:46 5 987 0 8 SO 0 75.2 655
07:04:45 5 988 0 8 S 0 75.1 653
07:07:45 5 987 0 8 S 0 74.9 647
07:10:46 5 987 3 2 SO 0 74.9 644
07:13:45 5 987 6 6 S 0 74.9 630
07:16:46 5 987 10 29 S 0 75.2 621
07:19:47 5 987 16 8 SW 0 75.2 615
07:22:48 5 987 27 9 SO 0 75 626
07:25:47 5 987 37 6 S 0 74.8 650
07:28:47 5 987 48 8 S 0 74.6 656
07:31:47 5 987 59 3 SO 0 74.7 658
07:34:47 5 987 70 4 S 0 74.7 659
07:37:47 5 987 79 5 SO 0 74.9 661
07:40:48 5 987 87 8 SW 0 75.5 670
07:43:45 5 987 97 6 S 0 75.8 673
07:46:49 5 987 106 7 SW 0 75.9 671
07:49:47 5 987 115 7 SO 0 75.8 671
07:52:49 5 987 124 13 SW 0 75.7 661
07:55:47 5 987 131 5 SW 0 75.6 668
07:58:47 5 987 137 10 S 0 75.4 677
08:01:46 6 987 142 7 S 0 75.1 682
08:04:47 6 987 146 1 NW 0 74.9 690
08:07:48 6 987 150 12 SO 0 74.8 694
08:10:47 6 987 153 6 SO 0 74.7 693
08:13:47 6 987 156 4 SO 0 74.7 698
08:16:48 6 987 158 11 S 0 74.1 697
08:19:49 6 987 160 12 SW 0 73.8 700
08:22:49 6 987 162 12 S 0 73.4 700
08:25:47 6 987 164 4 S 0 73.4 703
08:28:48 6 987 166 10 SO 0 73.4 695
08:31:47 6 988 168 6 S 0 73.5 697
08:34:47 6 987 169 5 S 0 73.7 705
08:37:46 6 987 170 14 S 0 74.1 709
08:40:47 6 987 171 6 SO 0 74.6 713
08:43:49 6 987 172 3 S 0 74.8 709
08:46:49 6 987 173 5 S 0 75 702
08:49:47 6 987 173 5 S 0 75.3 712
08:52:48 6 987 174 5 NO 0 75 706
08:55:47 6 987 176 2 O 0 74.7 704
08:58:49 6 987 178 10 SW 0 74.7 700
09:01:47 6 987 179 6 S 0 74.4 708
09:04:47 6 987 180 8 S 0 74.4 712
09:07:48 6 987 181 6 SO 0 74.5 721
09:10:48 6 987 181 8 0 74.3 721
09:13:46 6 987 181 7 S 0 74.1 712
09:16:47 6 987 183 7 SW 0 74 708
09:19:45 7 987 185 2 S 0 73.8 708
09:22:47 7 987 187 12 S 0 73.8 714
09:25:47 7 987 182 5 SO 0 73.6 712
09:28:45 7 987 185 4 N 0 73.4 708
09:31:47 7 987 186 7 SO 0 73 703
09:34:47 7 987 185 3 SO 0 72.6 707
09:37:47 7 987 186 8 S 0 72.6 711
09:40:45 7 987 187 7 S 0 72.5 714
09:43:46 8 987 186 4 S 0 72.4 708
09:46:46 8 987 184 2 S 0 72.3 702
09:49:47 8 987 185 8 S 0 72 700
09:52:47 8 987 186 6 S 0 71.9 705
09:55:48 8 987 188 5 S 0 71.8 706
09:58:49 8 987 190 4 S 0 71.7 708
10:01:49 8 987 195 5 SO 0 72.2 715
10:04:49 8 987 195 7 S 0 72.8 714
10:07:46 8 987 196 7 S 0 73 718
10:10:46 8 987 196 5 NO 0 73 714
10:13:47 8 987 194 5 W 0 72.7 720
10:16:46 8 987 196 7 SO 0 71.8 723
10:19:49 9 987 197 10 W 0 69.2 721
10:22:47 9 987 201 5 SO 0 68.9 720
10:25:49 10 987 200 10 SO 0 68.2 718
10:28:49 10 987 200 6 SW 0 67.7 723
10:31:47 10 987 208 9 S 0 67.3 723
10:34:46 10 986 214 21 W 0 67.4 729
10:37:50 10 987 210 11 SO 0 66.2 727
10:40:47 10 987 211 15 SO 0 65.6 723
10:43:47 11 987 214 12 S 0 64.8 726
10:46:50 11 987 210 16 S 0 64.4 731
10:49:53 11 987 215 9 SW 0 63.4 721
10:52:52 11 987 213 19 S 0 63.6 721
10:55:47 11 987 212 10 S 0 63.8 718
10:58:46 11 987 218 13 W 0 63.8 722
11:01:49 11 987 219 8 SO 0 64 723
11:04:49 11 987 218 19 SO 0 63.3 726
11:07:47 12 987 219 12 S 0 63 729
11:10:48 12 987 217 21 S 0 62.1 728
11:13:50 12 987 212 5 SO 0 61.8 720
11:16:48 12 987 210 10 S 0 62 728
11:19:49 12 987 209 6 SW 0 62.9 726
11:22:48 12 987 210 6 NO 0 63.2 729
11:25:50 12 987 219 6 SW 0 62.9 727
11:28:49 12 987 220 6 S 0 62.8 723
11:31:48 12 987 220 3 SW 0 62.6 718
11:34:48 12 987 215 9 S 0 62.1 723
11:37:48 12 987 218 10 S 0 61.5 727
11:40:48 12 987 219 9 SO 0 60.8 726
11:43:48 12 987 215 10 0 61.4 720
11:46:49 12 987 203 6 SO 0 61.6 723
11:49:47 12 987 206 7 S 0 61.2 715
11:52:45 12 987 217 6 S 0 61.3 709
11:55:48 13 987 213 16 S 0 61.8 709
11:58:45 13 987 206 6 O 0 61.3 714
12:01:50 14 987 205 6 S 0 59.4 714
12:04:49 14 986 151 14 S 0 58.7 583
12:07:46 14 987 157 10 SW 0 57.9 419
12:10:48 15 987 156 16 S 0 56 416
12:13:47 15 987 162 15 S 0 56 425
12:16:48 15 987 162 10 S 0 55.2 427
12:19:49 15 987 206 15 SO 0 53.7 431
12:22:48 15 987 185 4 SW 0 53.5 425
12:25:48 15 987 206 15 S 0 53.8 416
12:28:48 15 987 207 16 S 0 53.9 415
12:31:47 15 987 208 17 S 0 53.7 416
12:34:50 15 987 208 11 SO 0 54.2 440
12:37:48 15 987 208 17 SW 0 54.1 436
12:40:48 15 987 210 9 SW 0 53.6 437
12:43:48 15 987 210 7 O 0 53.8 445
12:46:46 15 987 213 14 N 0 53.6 448
12:49:47 14 987 205 28 SO 0 53.4 445
12:52:46 14 987 209 9 S 0 54.1 448
12:55:46 14 987 204 12 S 0 56.1 451
12:58:48 13 987 207 11 SO 0 58.3 459
13:01:51 13 987 206 11 SO 0 60.1 465
13:04:48 13 987 208 2 S 0 60.6 472
13:07:49 13 987 204 10 SW 0 61 480
13:10:48 13 987 222 6 S 0 60.9 483
13:13:46 13 987 224 6 S 0 60.3 487
13:16:47 14 987 228 3 S 0 59.2 483
13:19:51 14 987 226 14 SW 0 58 492
13:22:47 14 987 229 3 O 0 57.1 497
13:25:45 14 987 233 8 S 0 57.9 501
13:28:50 14 987 234 10 SW 0 56.9 501
13:31:47 15 987 232 9 W 0 56.3 501
13:34:46 15 987 231 6 NW 0 56.1 512
13:37:48 15 987 228 14 W 0 55.1 524
13:40:48 16 986 226 7 S 0 53.5 528
13:43:49 16 986 226 10 SO 0 53.1 536
13:46:48 15 987 226 9 SW 0 52.7 547
13:49:47 15 987 226 7 S 0 53.4 548
13:52:47 15 987 226 6 SO 0 53.8 554
13:55:49 16 987 229 2 SW 0 53.9 556
13:58:46 16 987 230 9 S 0 54.6 562
14:01:48 16 987 233 9 SW 0 53.5 568
14:04:49 16 987 233 9 SO 0 52.7 569
14:07:48 15 987 234 12 SO 0 53.3 574
14:10:48 15 987 235 10 SO 0 53.2 574
14:13:48 15 987 242 5 S 0 52.9 580
14:16:48 16 987 243 3 O 0 54.9 589
14:19:48 16 987 242 7 S 0 55.1 591
14:22:49 16 987 243 19 S 0 52.4 600
14:25:47 16 987 243 7 O 0 52.7 601
14:28:47 15 986 244 4 SO 0 53.5 612
14:31:48 15 986 244 9 S 0 53.9 613
14:34:47 15 987 244 12 SW 0 53.7 616
14:37:46 15 987 244 8 S 0 54 612
14:40:47 15 987 244 6 N 0 55.8 612
14:43:46 15 987 244 6 SW 0 56.4 612
14:46:45 15 986 242 13 S 0 56.1 612
14:49:46 14 986 243 9 S 0 56.1 611
14:52:47 14 986 244 10 SO 0 56.5 614
14:55:48 14 987 244 8 SW 0 57.4 615
14:58:46 14 987 243 5 S 0 58 617
15:01:48 14 987 244 6 S 0 58.5 623
15:04:46 14 987 242 6 W 0 58.8 633
15:07:47 13 987 242 5 S 0 59.3 643
15:10:50 13 987 239 12 S 0 60.3 653
15:13:48 13 987 240 11 W 0 60.4 659
15:16:48 13 987 240 4 O 0 60.2 655
15:19:47 13 987 240 11 S 0 60.2 636
15:22:47 13 987 238 5 SO 0 60.4 477
15:25:47 13 987 231 5 S 0 60.8 430
15:28:49 13 987 228 5 SW 0 60.5 474
15:31:50 13 987 219 6 SW 0 60.6 553
15:34:50 13 987 224 2 SW 0 60.9 571
15:37:49 13 987 209 8 SO 0 61.8 563
15:40:50 13 987 218 4 SO 0 62.5 569
15:43:48 12 987 217 6 W 0 62.9 571
15:46:49 12 987 220 11 S 0 62.9 574
15:49:50 12 987 222 10 S 0 63 578
15:52:52 12 987 215 18 SW 0 63.2 589
15:55:49 12 987 210 11 SO 0 63.3 591
15:58:48 12 987 210 9 SO 0 63.1 603
16:01:50 12 987 214 16 SO 0 63.8 603
16:04:49 12 987 218 3 SO 0 64.5 600
16:07:47 12 987 214 4 SW 0 65.1 597
16:10:48 12 987 206 14 W 0 65.5 597
16:13:48 12 987 199 11 SW 0 65.4 603
16:16:47 12 987 190 9 SO 0 65.1 608
16:19:49 12 987 186 3 S 0 65.3 603
16:22:48 12 987 164 4 SW 0 65.9 603
16:25:47 12 987 168 7 S 0 66.4 613
16:28:49 12 987 172 9 SO 0 66.4 627
16:31:49 12 987 156 3 NO 0 66.5 620
16:34:47 12 987 148 8 SO 0 66.9 615
16:37:48 12 987 124 12 S 0 67.1 618
16:40:49 12 987 119 4 NW 0 67 625
16:43:49 11 987 81 21 SO 0 67.3 622
16:46:47 11 987 69 5 S 0 67.5 621
16:49:48 11 987 62 7 S 0 67.3 616
16:52:47 11 987 59 4 SO 0 67.5 613
16:55:47 11 987 75 10 NW 0 68 612
16:58:46 11 987 72 4 SW 0 68.4 604
17:01:48 11 987 57 9 SW 0 68.9 609
17:04:49 11 987 44 4 SO 0 69.3 605
17:07:46 11 987 41 1 SW 0 69.4 606
17:10:46 11 987 34 6 W 0 69.9 606
17:13:47 11 987 30 5 S 0 70.3 608
17:16:48 11 987 28 4 S 0 70.6 609
17:19:48 11 988 30 4 SW 0 70.9 612
17:22:48 11 987 26 3 W 0 71.2 606
17:25:45 11 987 32 1 SO 0 71.5 604
17:28:48 11 987 28 6 W 0 71.6 600
17:31:48 11 988 13 4 S 0 71.6 600
17:34:47 11 987 12 3 SW 0 71.7 606
17:37:45 11 987 8 1 S 0 72 606
17:40:46 11 987 6 1 SW 0 72.1 604
17:43:45 11 987 3 3 W 0 72.6 595
17:46:45 11 987 3 1 O 0 72.8 591
17:49:46 11 987 0 3 S 0 73.2 598
17:52:49 11 987 0 7 SW 0 73.6 604
17:55:47 11 988 0 0 SW 0 73.6 601
17:58:45 11 987 0 2 W 0 73.7 595
18:01:48 11 987 0 5 SW 0 73.8 586
18:04:47 10 988 0 0 SO 0 74.1 586
18:07:47 10 988 0 1 NO 0 74.2 583
18:10:47 10 988 0 0 S 0 74.4 585
18:13:48 10 987 0 2 SW 0 74.6 580
18:16:46 10 987 0 1 S 0 74.9 579
18:19:46 10 987 0 1 SW 0 75.3 574
18:22:46 10 987 0 0 SO 0 75.5 574
18:25:49 10 988 0 0 SO 0 75.7 585
18:28:48 10 988 0 0 S 0 76 574
18:31:46 10 988 0 0 W 0 76.1 574
18:34:48 10 988 0 0 S 0 76.5 563
18:37:50 10 987 0 1 NO 0 76.8 428
18:40:48 10 988 0 0 SO 0 77 407
18:43:44 9 988 0 1 S 0 77.3 407
18:46:46 9 987 0 0 S 0 77.7 407
18:49:46 9 988 0 1 O 0 78.8 427
18:52:45 9 988 0 0 S 0 79 414
18:55:49 9 988 0 0 S 0 79 436
18:58:48 9 988 0 1 S 0 79.2 427
19:01:48 9 988 0 4 SO 0 79.7 429
19:04:47 9 988 0 1 S 0 80.1 436
19:07:49 9 988 0 1 SW 0 80.6 471
19:10:45 9 987 0 2 S 0 80.8 471
19:13:47 9 988 0 1 SW 0 80.8 474
19:16:48 9 988 0 1 SW 0 80.7 477
19:19:46 9 988 0 2 S 0 80.6 472
19:22:46 9 988 0 1 SO 0 80.7 474
19:25:48 9 988 0 2 S 0 80.8 481
19:28:47 9 988 0 2 SO 0 81.2 492
19:31:46 9 989 0 0 S 0 81.3 492
19:34:48 9 988 0 2 SO 0 81.7 497
19:37:46 9 988 0 1 S 0 81.9 499
19:40:46 9 988 0 0 S 0 82.1 507
19:43:47 9 988 0 1 SO 0 82.1 510
19:46:45 9 988 0 5 O 0 82.1 513
19:49:46 9 988 0 2 O 0 82.1 524
19:52:48 9 988 0 2 S 0 81.9 530
19:55:45 9 988 0 1 S 0 81.6 536
19:58:47 9 988 0 2 SO 0 81.3 529
20:01:46 9 988 0 5 S 0 81 536
20:04:46 9 988 0 5 S 0 80.7 547
20:07:47 9 988 0 1 S 0 80.6 550
20:10:48 9 989 0 4 SO 0 80.7 559
20:13:47 9 988 0 1 O 0 80.8 562
20:16:49 9 988 0 3 SO 0 80.9 568
20:19:46 9 989 0 2 S 0 81 566
20:22:48 9 988 0 3 S 0 81.1 569
20:25:47 9 988 0 3 W 0 81.2 577
20:28:48 9 988 0 1 S 0 81.2 582
20:31:49 9 988 0 1 SW 0 81.3 589
20:34:46 9 988 0 0 SO 0 81.3 594
20:37:47 9 989 0 1 SW 0 81.4 594
20:40:48 9 988 0 1 S 0 81.5 592
20:43:47 9 989 0 2 SO 0 81.7 604
20:46:47 9 989 0 2 S 0 81.7 606
20:49:48 9 989 0 0 SO 0 81.7 613
20:52:48 9 988 0 4 SO 0 81.7 612
20:55:47 9 989 0 4 SO 0 81.7 620
20:58:47 9 989 0 4 S 0 81.4 621
21:01:48 9 988 0 2 S 0 81.2 622
21:04:45 9 989 0 7 S 0 81 625
21:07:49 9 988 0 3 S 0 80.4 627
21:10:50 9 989 0 10 SO 0 80 627
21:13:46 9 989 0 3 S 0 79.7 630
21:16:46 9 989 0 4 S 0 79.6 630
21:19:47 9 989 0 6 S 0 79.5 630
21:22:46 9 989 0 8 S 0 79.5 633
21:25:48 9 989 0 3 SW 0 79.5 636
21:28:46 9 988 0 4 SW 0 79.6 634
21:31:46 9 989 0 1 SO 0 79.7 633
21:34:48 8 989 0 3 SW 0 80 640
21:37:46 8 989 0 2 S 0 80.1 634
21:40:48 8 989 0 2 SW 0 80.2 645
21:43:46 8 988 0 1 W 0 80.4 651
21:46:47 8 989 0 1 S 0 80.8 654
21:49:48 8 989 0 1 SO 0 81.2 654
21:52:46 8 989 0 10 S 0 81.4 667
21:55:47 8 989 0 8 S 0 81.8 674
21:58:47 8 989 0 4 S 0 82 679
22:01:49 8 989 0 2 SW 0 82.1 683
22:04:49 8 989 0 6 NW 0 82.2 687
22:07:48 8 990 0 3 NW 0 82.5 674
22:10:48 8 989 0 6 SW 0 82.7 682
22:13:45 8 989 0 8 S 0 82.7 679
22:16:51 8 989 0 2 O 0 82.6 686
22:19:47 8 989 0 3 S 0 82.5 680
22:22:47 8 989 0 2 SO 0 82.4 686
22:25:47 8 989 0 2 S 0 82.4 686
22:28:48 8 989 0 4 SW 0 82.5 691
22:31:47 8 989 0 3 SO 0 82.5 697
22:34:48 8 989 0 4 NW 0 82.5 704
22:37:47 8 989 0 5 SO 0 82.5 705
22:40:48 8 989 0 10 SO 0 82.4 709
22:43:48 8 989 0 4 S 0 82.1 707
22:46:48 8 989 0 9 SW 0 82.1 719
22:49:47 8 990 0 6 SW 0 82.1 725
22:52:46 8 989 0 7 S 0 82 721
22:55:46 8 989 0 2 SO 0 81.8 720
22:58:47 8 989 0 3 SW 0 81.7 715
23:01:46 8 989 0 4 S 0 81.5 716
23:04:46 8 989 0 9 SO 0 81.5 716
23:07:46 8 989 0 5 SW 0 81.5 722
23:10:48 8 989 0 12 S 0 81.7 724
23:13:45 8 990 0 7 S 0 81.6 724
23:16:46 8 989 0 4 SW 0 81.5 716
23:19:48 8 990 0 4 SW 0 81.3 727
23:22:47 8 989 0 4 SW 0 81.1 736
23:25:46 8 990 0 6 S 0 81 738
23:28:47 8 990 0 7 S 0 81.1 741
23:31:46 8 989 0 6 SW 0 81 733
23:34:46 8 990 0 5 S 0 80.8 742
23:37:45 8 989 0 7 SW 0 80.5 747
23:40:45 7 990 0 2 W 0 80.4 750
23:43:47 8 990 0 3 SO 0 80.4 748
23:46:48 7 990 0 4 SO 0 80.6 752
23:49:45 7 990 0 4 S 0 80.8 747
23:52:47 7 989 0 7 SO 0 81 757
23:55:44 7 989 0 2 S 0 81.1 758
23:58:46 7 989 0 5 SO 0 81.4 755

Letzte Änderung : 04-Jan-2022
Copyright Jens Köhler, Wolfsburg, Obere Dorfstraße 10d